FW8253 Weather Reports


time (UTC)temp
C
wind
direction
speed
KPH
gust
KPH
rain 1hr
cm
rain 24hr
cm
rain mn
cm
humidity
%
barometer
mb
20260510032705 17 206 0.0 0.0 0.00 0.00 0.00 99 1014.9
20260510032201 17 207 0.0 0.0 0.00 0.00 0.00 99 1014.8
20260510031655 17 206 0.0 0.0 0.00 0.00 0.00 99 1014.8
20260510031152 17 206 0.0 0.0 0.00 0.00 0.00 99 1015.0
20260510030646 17 206 0.0 0.0 0.00 0.00 0.00 99 1014.8
20260510030144 17 207 0.0 0.0 0.00 0.00 0.00 99 1014.9
20260510025641 17 206 0.0 0.0 0.00 0.00 0.00 99 1015.0
20260510025139 17 206 0.0 0.0 0.00 0.00 0.00 99 1014.9
20260510024635 17 206 0.0 0.0 0.00 0.00 0.00 99 1015.0
20260510024132 17 207 0.0 0.0 0.00 0.00 0.00 99 1014.9
20260510023628 17 207 0.0 0.0 0.00 0.00 0.00 99 1014.9
20260510023125 17 207 0.0 0.0 0.00 0.00 0.00 99 1014.8
20260510022625 17 207 0.0 0.0 0.00 0.00 0.00 99 1014.9
20260510022120 17 207 0.0 0.0 0.00 0.00 0.00 99 1014.8
20260510021616 17 207 0.0 0.0 0.00 0.00 0.00 99 1014.8
20260510021114 18 206 0.0 0.0 0.00 0.00 0.00 99 1014.6
20260510020614 18 207 0.0 0.0 0.00 0.00 0.00 99 1014.7
20260510020109 18 206 0.0 0.0 0.00 0.00 0.00 99 1014.6
20260510015606 18 206 0.0 0.0 0.00 0.00 0.00 98 1014.6
20260510015102 18 206 0.0 0.0 0.00 0.00 0.00 98 1014.6
20260510014558 18 206 0.0 0.0 0.00 0.00 0.00 98 1014.7
20260510014055 18 207 0.0 0.0 0.00 0.00 0.00 98 1014.8
20260510013550 18 207 0.0 0.0 0.00 0.00 0.00 98 1014.6
20260510013046 18 207 0.0 0.0 0.00 0.00 0.00 98 1014.2
20260510012545 18 207 0.0 0.0 0.00 0.00 0.00 97 1014.5
20260510012042 18 207 0.0 0.0 0.00 0.00 0.00 97 1014.6
20260510011542 18 207 0.0 0.0 0.00 0.00 0.00 97 1014.4
20260510011038 18 207 0.0 0.0 0.00 0.00 0.00 97 1014.3
20260510010535 19 207 0.0 0.0 0.00 0.00 0.00 97 1014.2
20260510010032 19 207 0.0 0.0 0.00 0.00 0.00 96 1014.4
20260510005527 19 207 0.0 0.0 0.00 0.00 0.00 96 1014.2
20260510005025 19 207 0.0 0.0 0.00 0.00 0.00 96 1013.9
20260510004523 20 206 0.0 0.0 0.00 0.00 0.00 95 1013.8
20260510004021 20 206 0.0 0.0 0.00 0.00 0.00 95 1013.7
20260510003517 20 207 0.0 0.0 0.00 0.00 0.00 94 1013.6
20260510003012 20 207 0.0 0.0 0.00 0.00 0.00 94 1013.6
20260510002508 20 207 0.0 0.0 0.00 0.00 0.00 94 1013.4
20260510002005 20 207 0.0 0.0 0.00 0.00 0.00 93 1013.3
20260510001503 20 229 0.0 0.0 0.00 0.00 0.00 93 1013.4
20260510001001 21 229 0.0 0.0 0.00 0.00 0.00 93 1013.3
20260510000456 21 230 0.0 0.0 0.00 0.00 0.00 93 1013.4
20260509235952 21 230 0.0 0.0 0.00 0.00 0.00 92 1013.1
20260509235449 21 229 0.0 0.0 0.00 0.00 0.00 91 1013.3
20260509234945 21 229 0.0 0.0 0.00 0.00 0.00 91 1013.1
20260509234442 21 228 0.0 0.0 0.00 0.00 0.00 90 1013.1
20260509233940 21 225 0.0 0.0 0.00 0.00 0.00 90 1013.0
20260509233438 21 225 0.0 0.0 0.00 0.00 0.00 90 1012.8
20260509232933 22 225 0.0 0.0 0.00 0.00 0.00 90 1012.8
20260509232432 22 233 0.0 0.0 0.00 0.00 0.00 89 1012.9
20260509231927 22 237 0.0 0.0 0.00 0.00 0.00 88 1012.7
20260509231424 22 211 0.0 0.0 0.00 0.00 0.00 88 1012.9
20260509230922 22 211 0.0 0.0 0.00 0.00 0.00 87 1012.8
20260509230419 22 211 0.0 0.0 0.00 0.00 0.00 88 1012.7
20260509225915 22 232 0.0 0.0 0.00 0.00 0.00 87 1012.6
20260509225411 22 233 0.0 0.0 0.00 0.00 0.00 87 1012.7
20260509224907 22 242 0.0 0.0 0.00 0.00 0.00 87 1012.8
20260509224403 22 241 0.0 0.0 0.00 0.00 0.00 87 1012.7
20260509223901 23 225 0.0 0.0 0.00 0.00 0.00 89 1012.7
20260509223357 23 228 0.0 0.0 0.00 0.00 0.00 88 1012.5
20260509222854 23 233 0.0 0.0 0.00 0.00 0.00 88 1012.6
20260509222349 23 233 0.0 0.0 0.00 0.00 0.00 87 1012.5
20260509221844 23 114 0.0 0.0 0.00 0.00 0.00 85 1012.2
20260509221342 23 233 0.0 0.0 0.00 0.00 0.00 86 1012.4
20260509220837 23 231 0.0 0.0 0.00 0.00 0.00 84 1012.4
20260509220333 23 224 0.0 0.0 0.00 0.00 0.00 83 1012.5
20260509215829 23 246 0.0 0.0 0.00 0.00 0.00 83 1012.2
20260509215326 23 246 0.0 0.0 0.00 0.00 0.00 82 1012.4
20260509214823 23 244 0.0 0.0 0.00 0.00 0.00 83 1012.4
20260509214320 23 241 0.0 0.0 0.00 0.00 0.00 84 1012.1
20260509213817 23 295 0.0 0.0 0.00 0.00 0.00 83 1012.2
20260509213312 23 233 0.0 0.0 0.00 0.00 0.00 83 1012.4
20260509212810 23 235 0.0 0.0 0.00 0.00 0.00 85 1012.3
20260509212308 23 222 0.0 0.0 0.00 0.00 0.00 85 1012.6
20260509211803 23 226 0.0 0.0 0.00 0.00 0.00 84 1012.5
20260509211259 24 227 0.0 0.0 0.00 0.00 0.00 81 1012.5
20260509210756 23 228 0.0 0.0 0.00 0.00 0.00 83 1012.6
20260509210254 24 133 0.0 0.0 0.00 0.00 0.00 82 1012.4
20260509205753 24 228 0.0 0.0 0.00 0.00 0.00 82 1012.6
20260509205248 24 58 0.0 0.0 0.00 0.00 0.00 79 1012.4
20260509204744 25 232 0.0 0.0 0.00 0.00 0.00 79 1012.5
20260509204241 25 203 0.0 0.0 0.00 0.00 0.00 78 1012.9
20260509203737 25 262 0.0 0.0 0.00 0.00 0.00 78 1012.6
20260509203235 25 234 0.0 0.0 0.00 0.00 0.00 77 1012.7
20260509202730 25 197 0.0 0.0 0.00 0.00 0.00 77 1012.8
20260509202227 24 224 0.0 0.0 0.00 0.00 0.00 80 1012.9
20260509201721 23 227 0.0 0.0 0.00 0.00 0.00 81 1013.1
20260509201218 23 190 0.0 0.0 0.00 0.00 0.00 79 1013.1
20260509200714 24 241 0.0 0.0 0.00 0.00 0.00 83 1013.1
20260509200209 23 299 0.0 0.0 0.00 0.00 0.00 77 1013.1
20260509195705 23 158 0.0 0.0 0.00 0.00 0.00 81 1013.1
20260509195201 23 48 0.0 0.0 0.00 0.00 0.00 79 1013.3
20260509194655 24 237 0.0 0.0 0.00 0.00 0.00 78 1013.5
20260509194152 24 233 0.0 0.0 0.00 0.00 0.00 79 1013.5
20260509193648 23 232 0.0 0.0 0.00 0.00 0.00 80 1013.4
20260509193143 24 265 0.0 0.0 0.00 0.00 0.00 77 1013.3
20260509192640 24 218 0.0 0.0 0.00 0.00 0.00 78 1013.6
20260509192136 23 150 0.0 0.0 0.00 0.00 0.00 83 1013.8
20260509191635 23 229 0.0 0.0 0.00 0.00 0.00 82 1013.7
20260509191132 23 108 0.0 0.0 0.00 0.00 0.00 79 1014.0
20260509190629 23 215 0.0 0.0 0.00 0.00 0.00 82 1013.8
20260509190126 23 266 0.0 0.0 0.00 0.00 0.00 81 1013.9
20260509185624 23 241 0.0 0.0 0.00 0.00 0.00 81 1013.9
20260509185120 23 187 0.0 0.0 0.00 0.00 0.00 78 1014.1
20260509184618 23 219 0.0 0.0 0.00 0.00 0.00 81 1013.9
20260509184114 23 246 0.0 0.0 0.00 0.00 0.00 81 1014.0
20260509183610 23 239 0.0 0.0 0.00 0.00 0.00 81 1014.0
20260509183106 23 226 0.0 0.0 0.00 0.00 0.00 81 1013.9
20260509182602 23 225 0.0 0.0 0.00 0.00 0.00 84 1014.0
20260509182059 23 219 0.0 0.0 0.00 0.00 0.00 80 1013.8
20260509181558 23 234 0.0 0.0 0.00 0.00 0.00 79 1014.1
20260509181054 23 275 0.0 0.0 0.00 0.00 0.00 82 1014.2
20260509180550 23 286 0.0 0.0 0.00 0.00 0.00 85 1014.1
20260509180048 23 243 0.0 0.0 0.00 0.00 0.00 83 1013.9
20260509175543 22 44 0.0 0.0 0.00 0.00 0.00 84 1014.2
20260509175040 22 223 0.0 0.0 0.00 0.00 0.00 84 1014.2
20260509174537 22 260 0.0 0.0 0.00 0.00 0.00 87 1013.9
20260509174032 22 234 0.0 0.0 0.00 0.00 0.00 84 1013.9
20260509173526 22 242 0.0 0.0 0.00 0.00 0.00 86 1013.8
20260509173023 22 243 0.0 0.0 0.00 0.00 0.00 85 1013.8
20260509172520 22 224 0.0 0.0 0.00 0.00 0.00 84 1013.8
20260509172016 23 247 0.0 0.0 0.00 0.00 0.00 83 1013.8
20260509171512 23 214 0.0 0.0 0.00 0.00 0.00 83 1014.0
20260509171009 23 248 0.0 0.0 0.00 0.00 0.00 81 1013.9
20260509170504 23 246 0.0 0.0 0.00 0.00 0.00 82 1013.7
20260509170001 22 222 0.0 0.0 0.00 0.00 0.00 83 1013.8
20260509165459 22 247 0.0 0.0 0.00 0.00 0.00 85 1014.0
20260509164955 23 13 0.0 0.0 0.00 0.00 0.00 82 1013.7
20260509164451 22 193 0.0 0.0 0.00 0.00 0.00 84 1013.9
20260509163947 22 221 0.0 0.0 0.00 0.00 0.00 84 1014.0
20260509163445 22 228 0.0 0.0 0.00 0.00 0.00 85 1014.1
20260509162944 22 219 0.0 0.0 0.00 0.00 0.00 85 1014.0
20260509162443 22 234 0.0 0.0 0.00 0.00 0.00 89 1014.2
20260509161938 22 194 0.0 0.0 0.00 0.00 0.00 85 1014.2
20260509161435 22 241 0.0 0.0 0.00 0.00 0.00 89 1014.1
20260509160930 22 253 0.0 0.0 0.00 0.00 0.00 87 1014.2
20260509160426 22 229 0.0 0.0 0.00 0.00 0.00 87 1014.3
20260509155921 22 202 0.0 0.0 0.00 0.00 0.00 87 1014.3
20260509155418 22 272 0.0 0.0 0.00 0.00 0.00 87 1014.7
20260509154915 22 205 0.0 0.0 0.00 0.00 0.00 88 1014.3
20260509154411 22 216 0.0 0.0 0.00 0.00 0.00 88 1014.3
20260509153908 21 224 0.0 0.0 0.00 0.00 0.00 87 1014.2
20260509153405 21 236 0.0 0.0 0.00 0.00 0.00 87 1014.4
20260509152901 21 268 0.0 0.0 0.00 0.00 0.00 87 1014.3
20260509152352 21 219 0.0 0.0 0.00 0.00 0.00 88 1014.4
20260509151849 21 163 0.0 0.0 0.00 0.00 0.00 87 1014.3
20260509151345 21 240 0.0 0.0 0.00 0.00 0.00 87 1014.1
20260509150844 21 223 0.0 0.0 0.00 0.00 0.00 87 1014.5
20260509150342 21 202 0.0 0.0 0.00 0.00 0.00 87 1014.5
20260509145839 21 229 0.0 0.0 0.00 0.00 0.00 87 1014.6
20260509145339 21 236 0.0 0.0 0.00 0.00 0.00 89 1014.6
20260509144835 21 248 0.0 0.0 0.00 0.00 0.00 88 1014.6
20260509144332 21 189 0.0 0.0 0.00 0.00 0.00 86 1014.9
20260509143829 21 229 0.0 0.0 0.00 0.00 0.00 87 1014.9
20260509143327 21 237 0.0 0.0 0.00 0.00 0.00 88 1014.8
20260509142823 21 214 0.0 0.0 0.00 0.00 0.00 89 1014.9
20260509142319 20 207 0.0 0.0 0.00 0.00 0.00 90 1015.0
20260509141815 20 242 0.0 0.0 0.00 0.00 0.00 90 1014.8
20260509141312 20 225 0.0 0.0 0.00 0.00 0.00 90 1014.7
20260509140808 20 198 0.0 0.0 0.00 0.00 0.00 93 1015.3
20260509140306 20 347 0.0 0.0 0.00 0.00 0.00 92 1015.2
20260509135803 20 239 0.0 0.0 0.00 0.00 0.00 92 1015.4
20260509135301 20 235 0.0 0.0 0.00 0.00 0.00 91 1015.2
20260509134758 20 219 0.0 0.0 0.00 0.00 0.00 93 1015.1
20260509134255 20 207 0.0 0.0 0.00 0.00 0.00 92 1015.0
20260509133752 20 236 0.0 0.0 0.00 0.00 0.00 91 1015.0
20260509133248 20 220 0.0 0.0 0.00 0.00 0.00 92 1015.0
20260509132747 20 222 0.0 0.0 0.00 0.00 0.00 91 1015.1
20260509132246 20 256 0.0 0.0 0.00 0.00 0.00 92 1014.7
20260509131742 20 251 0.0 0.0 0.00 0.00 0.00 91 1014.3
20260509131239 20 212 0.0 0.0 0.00 0.00 0.00 93 1014.3
20260509130735 19 199 0.0 0.0 0.00 0.00 0.00 94 1014.3
20260509130230 18 237 0.0 0.0 0.00 0.00 0.00 96 1014.5
20260509125727 18 220 0.0 0.0 0.00 0.00 0.00 97 1014.6
20260509125225 18 201 0.0 0.0 0.00 0.00 0.00 98 1014.8
20260509124721 17 224 0.0 0.0 0.00 0.00 0.00 98 1015.0
20260509124217 17 228 0.0 0.0 0.00 0.00 0.00 98 1014.7
20260509123716 17 215 0.0 0.0 0.00 0.00 0.00 99 1014.9
20260509123213 17 182 0.0 0.0 0.00 0.00 0.00 99 1015.2
20260509122708 17 182 0.0 0.0 0.00 0.00 0.00 99 1015.1
20260509122205 17 181 0.0 0.0 0.00 0.00 0.00 99 1015.1
20260509121702 17 181 0.0 0.0 0.00 0.00 0.00 99 1015.0
20260509121200 16 181 0.0 0.0 0.00 0.00 0.00 99 1015.1
20260509120658 16 181 0.0 0.0 0.00 0.00 0.00 99 1014.9
20260509120155 16 181 0.0 0.0 0.00 0.00 0.00 99 1015.2
20260509115653 16 181 0.0 0.0 0.00 0.00 0.00 99 1015.0
20260509115150 16 181 0.0 0.0 0.00 0.00 0.00 99 1015.0
20260509114648 16 181 0.0 0.0 0.00 0.00 0.00 99 1015.1
20260509114147 16 181 0.0 0.0 0.00 0.00 0.00 99 1015.1
20260509113645 16 181 0.0 0.0 0.00 0.00 0.00 99 1015.1
20260509113141 16 181 0.0 0.0 0.00 0.00 0.00 99 1015.0
20260509112638 16 181 0.0 0.0 0.00 0.00 0.00 99 1015.0
20260509112135 15 181 0.0 0.0 0.00 0.00 0.00 99 1015.2
20260509111632 15 181 0.0 0.0 0.00 0.00 0.00 99 1015.1
20260509111123 15 181 0.0 0.0 0.00 0.00 0.00 99 1015.0
20260509110620 15 181 0.0 0.0 0.00 0.00 0.00 99 1014.7
20260509110118 15 182 0.0 0.0 0.00 0.00 0.00 99 1014.6
20260509105616 15 181 0.0 0.0 0.00 0.00 0.00 99 1014.6
20260509105113 15 182 0.0 0.0 0.00 0.00 0.00 99 1015.0
20260509104610 15 181 0.0 0.0 0.00 0.00 0.00 99 1015.0
20260509104108 15 181 0.0 0.0 0.00 0.00 0.00 99 1015.1
20260509103604 15 181 0.0 0.0 0.00 0.00 0.00 99 1014.8
20260509103102 15 181 0.0 0.0 0.00 0.00 0.00 99 1014.5
20260509102559 15 181 0.0 0.0 0.00 0.00 0.00 99 1014.4
20260509102056 15 181 0.0 0.0 0.00 0.00 0.00 99 1014.5
20260509101552 15 181 0.0 0.0 0.00 0.00 0.00 99 1014.5
20260509101049 15 181 0.0 0.0 0.00 0.00 0.00 99 1014.2
20260509100546 15 181 0.0 0.0 0.00 0.00 0.00 99 1014.0
20260509100044 15 181 0.0 0.0 0.00 0.00 0.00 99 1014.2
20260509095540 15 181 0.0 0.0 0.00 0.00 0.00 99 1014.1
20260509095038 14 181 0.0 0.0 0.00 0.00 0.00 99 1014.2
20260509094534 14 181 0.0 0.0 0.00 0.00 0.00 99 1013.8
20260509094031 14 181 0.0 0.0 0.00 0.00 0.00 99 1013.8
20260509093529 14 181 0.0 0.0 0.00 0.00 0.00 99 1013.8
20260509093027 14 181 0.0 0.0 0.00 0.00 0.00 99 1013.6
20260509092525 14 181 0.0 0.0 0.00 0.00 0.00 99 1013.7
20260509092023 14 181 0.0 0.0 0.00 0.00 0.00 99 1013.8
20260509091520 14 181 0.0 0.0 0.00 0.00 0.00 99 1013.5
20260509091016 14 181 0.0 0.0 0.00 0.00 0.00 99 1013.6
20260509090514 14 181 0.0 0.0 0.00 0.00 0.00 99 1013.8
20260509090012 15 181 0.0 0.0 0.00 0.00 0.00 99 1013.9
20260509085508 15 181 0.0 0.0 0.00 0.00 0.00 99 1013.6
20260509085004 15 181 0.0 0.0 0.00 0.00 0.00 99 1013.6
20260509084501 15 181 0.0 0.0 0.00 0.00 0.00 99 1013.9
20260509083959 15 181 0.0 0.0 0.00 0.00 0.00 99 1013.7
20260509083456 15 181 0.0 0.0 0.00 0.00 0.00 99 1013.8
20260509082952 15 181 0.0 0.0 0.00 0.00 0.00 99 1013.8
20260509082450 15 181 0.0 0.0 0.00 0.00 0.00 99 1014.0
20260509081947 15 181 0.0 0.0 0.00 0.00 0.00 99 1014.0
20260509081444 15 181 0.0 0.0 0.00 0.00 0.00 99 1013.9
20260509080941 15 181 0.0 0.0 0.00 0.00 0.00 99 1013.9
20260509080439 15 181 0.0 0.0 0.00 0.00 0.00 99 1013.8
20260509075937 15 181 0.0 0.0 0.00 0.00 0.00 99 1013.9
20260509075434 15 181 0.0 0.0 0.00 0.00 0.00 99 1013.8
20260509074932 15 181 0.0 0.0 0.00 0.00 0.00 99 1013.9
20260509074429 15 181 0.0 0.0 0.00 0.00 0.00 99 1013.7
20260509073925 15 181 0.0 0.0 0.00 0.00 0.00 99 1013.8
20260509073421 15 181 0.0 0.0 0.00 0.00 0.00 99 1013.8
20260509072918 15 181 0.0 0.0 0.00 0.00 0.00 99 1014.0
20260509072415 15 181 0.0 0.0 0.00 0.00 0.00 99 1014.1
20260509071911 15 181 0.0 0.0 0.00 0.00 0.00 99 1014.3
20260509071409 15 181 0.0 0.0 0.00 0.00 0.00 99 1014.3
20260509070906 15 181 0.0 0.0 0.00 0.00 0.00 99 1014.4
20260509070402 15 181 0.0 0.0 0.00 0.00 0.00 99 1014.6
20260509065858 15 180 0.0 0.0 0.00 0.00 0.00 99 1014.6
20260509065355 15 181 0.0 0.0 0.00 0.00 0.00 99 1014.8
20260509064851 15 181 0.0 0.0 0.00 0.00 0.00 99 1014.6
20260509064348 16 180 0.0 0.0 0.00 0.00 0.00 99 1014.4
20260509063846 16 180 0.0 0.0 0.00 0.00 0.00 99 1014.6
20260509063342 16 180 0.0 0.0 0.00 0.00 0.00 99 1014.8
20260509062839 16 181 0.0 0.0 0.00 0.00 0.00 98 1015.0
20260509062336 16 181 0.0 0.0 0.00 0.00 0.00 98 1014.9
20260509061833 16 181 0.0 0.0 0.00 0.00 0.00 98 1015.0
20260509061332 16 181 0.0 0.0 0.00 0.00 0.00 98 1014.9
20260509060828 16 180 0.0 0.0 0.00 0.00 0.00 98 1014.6
20260509060325 16 180 0.0 0.0 0.00 0.00 0.00 98 1015.2
20260509055820 16 180 0.0 0.0 0.00 0.00 0.00 97 1015.1
20260509055316 16 180 0.0 0.0 0.00 0.00 0.00 97 1015.5
20260509054813 16 180 0.0 0.0 0.00 0.00 0.00 97 1015.5
20260509054310 16 177 0.0 0.0 0.00 0.00 0.00 97 1015.2
20260509053808 16 177 0.0 0.0 0.00 0.00 0.00 97 1014.9
20260509053304 16 176 0.0 0.0 0.00 0.00 0.00 97 1014.6
20260509052802 16 176 0.0 0.0 0.00 0.00 0.00 97 1014.9
20260509052300 16 176 0.0 0.0 0.00 0.00 0.00 97 1015.2
20260509051758 16 176 0.0 0.0 0.00 0.00 0.00 97 1015.3
20260509051256 16 176 0.0 0.0 0.00 0.00 0.00 97 1015.6
20260509050752 16 176 0.0 0.0 0.00 0.00 0.00 97 1015.6
20260509050249 16 158 0.0 0.0 0.00 0.00 0.00 97 1016.0
20260509045746 16 177 0.0 0.0 0.00 0.00 0.00 97 1016.0
20260509045243 16 177 0.0 0.0 0.00 0.00 0.00 97 1016.1
20260509044740 16 177 0.0 0.0 0.00 0.00 0.00 97 1015.8
20260509044238 16 177 0.0 0.0 0.00 0.00 0.00 97 1015.8
20260509043734 16 177 0.0 0.0 0.00 0.00 0.00 97 1015.6
20260509043230 16 177 0.0 0.0 0.00 0.00 0.00 97 1015.8
20260509042726 16 177 0.0 0.0 0.00 0.00 0.00 97 1016.0
20260509042222 16 176 0.0 0.0 0.00 0.00 0.00 97 1016.4
20260509041719 16 177 0.0 0.0 0.00 0.00 0.00 97 1016.6
20260509041217 16 176 0.0 0.0 0.00 0.00 0.00 97 1016.4
20260509040715 16 176 0.0 0.0 0.00 0.00 0.00 97 1016.4
20260509040212 16 176 0.0 0.0 0.00 0.00 0.00 97 1016.3
20260509035708 16 176 0.0 0.0 0.00 0.00 0.00 97 1016.4
20260509035205 16 176 0.0 0.0 0.00 0.00 0.00 97 1016.4
20260509034702 16 176 0.0 0.0 0.00 0.00 0.00 96 1016.4
20260509034200 16 176 0.0 0.0 0.00 0.00 0.00 96 1016.4
20260509033657 16 176 0.0 0.0 0.00 0.00 0.00 96 1016.2
20260509033153 16 176 0.0 0.0 0.00 0.00 0.00 96 1016.5